Retour au catalogue

STARLINK-5189

ActifCommunicationsVLEO
NORAD 54052·PAYLOAD·🇺🇸 United States

Lancé Oct 20, 2022 depuis Cape Canaveral Space Force Station

Loading…

Prochains Passages (prochaines 24 heures)

TLE

FraisSource: CelesTrak SupGP

Époque: Sep 14, 2026, 22:12 UTC

1 54052C 22136B   26257.92548611 -.00038247  00000+0 -23988-2 0  2572
2 54052  53.1588 173.7953 0001580  90.1596 351.0213 15.08850020    12

Suivez STARLINK-5189 en temps réel avec AllMySat

Download on the App Store